Pittsburgh, PA

4:45 AM EDT on March 29, 2017 (GMT -0400)
Pittsburgh International

Weather History for KPIT - August, 2012

Change the Weather History Date:

Thursday, August 2, 2012

  Actual Average Record
Temperature  
Mean Temperature 74 °F 72 °F  
Max Temperature 86 °F 82 °F 96 °F (1975)
Min Temperature 61 °F 63 °F 47 °F (1976)
Degree Days  
Heating Degree Days 0 0  
Month to date heating degree days 0 0  
Since 1 June heating degree days 26 42  
Since 1 July heating degree days 0 4  
Cooling Degree Days 9 8  
Month to date cooling degree days 20 16  
Year to date cooling degree days 728 459  
Since 1 June cooling degree days 579 407  
Growing Degree Days 24 (Base 50)    
Moisture  
Dew Point 59 °F    
Average Humidity 63    
Maximum Humidity 90    
Minimum Humidity 35    
Precipitation  
Precipitation 0.00 in 0.12 in 2.12 in (1994)
Month to date precipitation 0.00 0.24  
Year to date precipitation 23.94 23.47  
Snow  
Snow 0.00 in 0.00 in 0.00 in (2002)
Month to date snowfall 0.0 0.0  
Since 1 July snowfall 0.0 0.0  
Snow Depth 0.00 in    
Sea Level Pressure  
Sea Level Pressure 29.93 in    
Wind  
Wind Speed 3 mph (West)    
Max Wind Speed 15 mph    
Max Gust Speed 23 mph    
Visibility 10 miles    
Events      
T = Trace of Precipitation, MM = Missing Value Source: NWS Daily Summary

Daily Weather History Graph

Daily Weather History Graph

Search for Another Location

Airport or City:

Trip Planner

Search our weather history database for the weather conditions in past years. The results will help you decide how hot, cold, wet, or windy it might be!

Date:

Astronomy

Aug. 02, 2012 Rise Set
Actual Time 6:19 AM EDT 8:34 PM EDT
Civil Twilight 5:49 AM EDT 9:04 PM EDT
Nautical Twilight 5:11 AM EDT 9:41 PM EDT
Astronomical Twilight 4:30 AM EDT 10:22 PM EDT
Moon 8:38 PM EDT (8/2) 6:55 AM EDT (8/2)
Length of Visible Light 15h 15m
Length of Day
14h 14m
Full, 100% of the Moon is Illuminated
Aug 2
Full
Aug 9
Last Quarter
Aug 17
New
Aug 24
First Quarter
Aug 31
Full

Hourly Weather History & Observations

Time (EDT) Temp. Heat Index Dew Point Humidity Pressure Visibility Wind Dir Wind Speed Gust Speed Precip Events Conditions
12:51 AM 72.0 °F - 60.1 °F 66% 29.91 in 10.0 mi Calm Calm - N/A   Clear
1:51 AM 66.9 °F - 61.0 °F 81% 29.90 in 10.0 mi Calm Calm - N/A   Clear
2:51 AM 66.9 °F - 60.1 °F 79% 29.91 in 10.0 mi NW 4.6 mph - N/A   Clear
3:51 AM 64.9 °F - 60.1 °F 84% 29.90 in 10.0 mi Calm Calm - N/A   Partly Cloudy
4:51 AM 64.0 °F - 60.1 °F 87% 29.91 in 10.0 mi Calm Calm - N/A   Partly Cloudy
5:51 AM 63.0 °F - 59.0 °F 87% 29.92 in 10.0 mi Calm Calm - N/A   Partly Cloudy
6:51 AM 62.1 °F - 57.9 °F 86% 29.92 in 10.0 mi Calm Calm - N/A   Partly Cloudy
7:51 AM 66.0 °F - 60.1 °F 81% 29.93 in 10.0 mi Calm Calm - N/A   Partly Cloudy
8:51 AM 72.0 °F - 61.0 °F 68% 29.93 in 10.0 mi Calm Calm - N/A   Partly Cloudy
9:51 AM 77.0 °F - 59.0 °F 54% 29.94 in 10.0 mi Calm Calm - N/A   Mostly Cloudy
10:51 AM 79.0 °F - 57.9 °F 48% 29.94 in 10.0 mi SSW 4.6 mph - N/A   Scattered Clouds
11:51 AM 81.0 °F 81.6 °F 60.1 °F 49% 29.95 in 10.0 mi Variable 5.8 mph - N/A   Scattered Clouds
12:51 PM 82.0 °F 82.4 °F 60.1 °F 47% 29.96 in 10.0 mi NW 11.5 mph - N/A   Mostly Cloudy
1:51 PM 82.9 °F 83.2 °F 60.1 °F 46% 29.96 in 10.0 mi Variable 5.8 mph - N/A   Scattered Clouds
2:51 PM 84.0 °F 83.0 °F 55.9 °F 38% 29.93 in 10.0 mi Variable 3.5 mph - N/A   Scattered Clouds
3:51 PM 84.9 °F 83.6 °F 55.0 °F 36% 29.92 in 10.0 mi SW 5.8 mph - N/A   Scattered Clouds
4:51 PM 84.9 °F 83.7 °F 55.9 °F 37% 29.91 in 10.0 mi WNW 4.6 mph - N/A   Partly Cloudy
5:51 PM 86.0 °F 84.7 °F 55.9 °F 36% 29.91 in 10.0 mi WNW 8.1 mph - N/A   Scattered Clouds
6:51 PM 84.0 °F 83.3 °F 57.0 °F 40% 29.91 in 10.0 mi West 4.6 mph - N/A   Partly Cloudy
7:51 PM 82.0 °F 81.6 °F 55.9 °F 41% 29.92 in 10.0 mi West 3.5 mph - N/A   Partly Cloudy
8:51 PM 79.0 °F - 62.1 °F 56% 29.92 in 10.0 mi Calm Calm - N/A   Scattered Clouds
9:51 PM 73.0 °F - 61.0 °F 66% 29.94 in 10.0 mi Calm Calm - N/A   Mostly Cloudy
10:51 PM 73.9 °F - 61.0 °F 64% 29.95 in 10.0 mi Calm Calm - N/A   Mostly Cloudy
11:51 PM 73.0 °F - 63.0 °F 71% 29.95 in 10.0 mi Calm Calm - N/A   Mostly Cloudy